When you browse on this site, cookies collect data to enhance your experience and personalize the content and advertising you see.
Visit our Privacy Policy to learn more. By continuing to use the site, you agree to this use of cookies and data.
  • In Hungary
  • List of Countries
  • For 7 days
  • Water Temperature
  • Weather Map
  • News
  • Weather Widgets
  • user-avatar
    Login

    Hourly Weather Vocklabruck

    Today, 31 March, Tuesday

    Time Temperature Precipitation Wind Pressure Humidity
    00:00 -2°C° 0 mm 1 mps 726 mmHg 70%
    01:00 -2°C° 0 mm 1 mps 726 mmHg 66%
    02:00 -2°C° 0 mm 1 mps 726 mmHg 66%
    03:00 -2°C° 0 mm 1 mps 726 mmHg 66%
    04:00 -3°C° 0 mm 0 mps 726 mmHg 67%
    05:00 -3°C° 0 mm 0 mps 726 mmHg 64%
    06:00 -2°C° 0 mm 0 mps 726 mmHg 62%
    07:00 0°C° 0 mm 1 mps 727 mmHg 60%
    08:00 +2°C° 0 mm 1 mps 727 mmHg 55%
    09:00 +4°C° 0 mm 1 mps 726 mmHg 49%
    10:00 +6°C° 0 mm 1 mps 726 mmHg 44%
    11:00 +6°C° 0.1 mm 1 mps 726 mmHg 41%
    12:00 +7°C° 0.1 mm 1 mps 726 mmHg 39%
    13:00 +5°C° 0 mm 2 mps 726 mmHg 40%
    14:00 +5°C° 0.1 mm 2 mps 726 mmHg 42%
    15:00 +5°C° 0.1 mm 2 mps 725 mmHg 43%
    16:00 +5°C° 0.1 mm 2 mps 725 mmHg 45%
    17:00 +3°C° 0.1 mm 2 mps 725 mmHg 56%
    18:00 +2°C° 0.1 mm 1 mps 726 mmHg 67%
    19:00 +1°C° 0.1 mm 1 mps 726 mmHg 78%
    20:00 0°C° 0 mm 1 mps 726 mmHg 77%
    21:00 0°C° 0 mm 1 mps 727 mmHg 76%
    22:00 -1°C° 0 mm 1 mps 727 mmHg 76%
    23:00 -1°C° 0 mm 1 mps 727 mmHg 76%

    Tomorrow, 1 April, Wednesday

    Time Temperature Precipitation Wind Pressure Humidity
    00:00 -1°C° 0 mm 1 mps 727 mmHg 75%
    01:00 -2°C° 0 mm 1 mps 727 mmHg 75%
    02:00 -2°C° 0 mm 1 mps 726 mmHg 76%
    03:00 -2°C° 0 mm 1 mps 726 mmHg 77%
    04:00 -2°C° 0 mm 1 mps 725 mmHg 77%
    05:00 -2°C° 0 mm 1 mps 725 mmHg 75%
    06:00 -1°C° 0 mm 1 mps 725 mmHg 73%
    07:00 -1°C° 0 mm 1 mps 725 mmHg 70%
    08:00 +1°C° 0 mm 1 mps 725 mmHg 62%
    09:00 +4°C° 0 mm 1 mps 724 mmHg 54%
    10:00 +5°C° 0 mm 2 mps 724 mmHg 45%
    11:00 +6°C° 0 mm 2 mps 723 mmHg 43%
    12:00 +7°C° 0 mm 2 mps 723 mmHg 40%
    13:00 +8°C° 0 mm 2 mps 722 mmHg 37%
    14:00 +8°C° 0 mm 2 mps 722 mmHg 39%
    15:00 +9°C° 0 mm 1 mps 721 mmHg 41%
    16:00 +9°C° 0 mm 1 mps 720 mmHg 42%
    17:00 +7°C° 0 mm 1 mps 720 mmHg 51%
    18:00 +4°C° 0 mm 1 mps 720 mmHg 59%
    19:00 +1°C° 0 mm 0 mps 720 mmHg 68%
    20:00 +1°C° 0 mm 0 mps 720 mmHg 70%
    21:00 +1°C° 0 mm 1 mps 720 mmHg 71%
    22:00 +1°C° 0 mm 1 mps 720 mmHg 73%
    23:00 0°C° 0 mm 1 mps 720 mmHg 74%

    Day after tomorrow, 2 April, Thursday

    Time Temperature Precipitation Wind Pressure Humidity
    00:00 0°C° 0 mm 1 mps 720 mmHg 75%
    01:00 0°C° 0 mm 1 mps 720 mmHg 76%
    02:00 0°C° 0 mm 1 mps 720 mmHg 76%
    03:00 0°C° 0 mm 1 mps 719 mmHg 76%
    04:00 -2°C° 0 mm 0 mps 719 mmHg 77%
    05:00 -1°C° 0 mm 0 mps 719 mmHg 73%
    06:00 0°C° 0 mm 0 mps 719 mmHg 70%
    07:00 +1°C° 0 mm 0 mps 719 mmHg 66%
    08:00 +3°C° 0 mm 0 mps 719 mmHg 59%
    09:00 +6°C° 0 mm 0 mps 719 mmHg 53%
    10:00 +10°C° 0 mm 1 mps 718 mmHg 46%
    11:00 +11°C° 0 mm 1 mps 718 mmHg 44%
    12:00 +11°C° 0 mm 1 mps 718 mmHg 42%
    13:00 +12°C° 0 mm 1 mps 717 mmHg 40%
    14:00 +12°C° 0 mm 1 mps 717 mmHg 41%
    15:00 +12°C° 0 mm 1 mps 716 mmHg 43%
    16:00 +12°C° 0 mm 2 mps 716 mmHg 44%
    17:00 +9°C° 0 mm 1 mps 716 mmHg 53%
    18:00 +7°C° 0 mm 1 mps 716 mmHg 61%
    19:00 +4°C° 0 mm 0 mps 716 mmHg 70%
    20:00 +4°C° 0 mm 1 mps 716 mmHg 71%
    21:00 +4°C° 0 mm 1 mps 717 mmHg 72%
    22:00 +3°C° 0 mm 1 mps 717 mmHg 74%
    23:00 +2°C° 0 mm 2 mps 717 mmHg 75%

    3 April, Friday

    Time Temperature Precipitation Wind Pressure Humidity
    00:00 +2°C° 0 mm 2 mps 718 mmHg 77%
    01:00 +2°C° 0 mm 2 mps 718 mmHg 78%
    02:00 +2°C° 0 mm 2 mps 718 mmHg 79%
    03:00 +2°C° 0 mm 2 mps 718 mmHg 80%
    04:00 +2°C° 0 mm 2 mps 718 mmHg 81%
    05:00 +2°C° 0 mm 2 mps 719 mmHg 82%
    06:00 +2°C° 0 mm 2 mps 719 mmHg 83%
    07:00 +3°C° 0 mm 2 mps 719 mmHg 84%
    08:00 +4°C° 0 mm 2 mps 719 mmHg 78%
    09:00 +5°C° 0 mm 3 mps 719 mmHg 72%
    10:00 +8°C° 0 mm 3 mps 720 mmHg 66%
    11:00 +8°C° 0 mm 3 mps 720 mmHg 63%
    12:00 +9°C° 0 mm 3 mps 720 mmHg 60%
    13:00 +10°C° 0 mm 3 mps 720 mmHg 58%
    14:00 +10°C° 0 mm 3 mps 720 mmHg 58%
    15:00 +10°C° 0 mm 3 mps 720 mmHg 58%
    16:00 +9°C° 0 mm 3 mps 720 mmHg 58%
    17:00 +8°C° 0 mm 2 mps 720 mmHg 65%
    18:00 +6°C° 0 mm 2 mps 720 mmHg 71%
    19:00 +6°C° 0 mm 1 mps 721 mmHg 78%
    20:00 +5°C° 0 mm 1 mps 721 mmHg 78%
    21:00 +5°C° 0 mm 1 mps 722 mmHg 79%
    22:00 +5°C° 0 mm 1 mps 723 mmHg 79%
    23:00 +4°C° 0 mm 1 mps 723 mmHg 80%

    4 April, Saturday

    Time Temperature Precipitation Wind Pressure Humidity
    00:00 +4°C° 0 mm 1 mps 723 mmHg 81%
    01:00 +4°C° 0 mm 1 mps 724 mmHg 82%
    02:00 +3°C° 0 mm 1 mps 724 mmHg 83%
    03:00 +3°C° 0 mm 1 mps 724 mmHg 85%
    04:00 +2°C° 0 mm 1 mps 724 mmHg 86%
    05:00 +3°C° 0 mm 1 mps 725 mmHg 84%
    06:00 +3°C° 0 mm 0 mps 725 mmHg 81%
    07:00 +3°C° 0 mm 0 mps 725 mmHg 79%
    08:00 +6°C° 0 mm 1 mps 725 mmHg 72%
    09:00 +9°C° 0 mm 1 mps 726 mmHg 65%
    10:00 +11°C° 0 mm 1 mps 726 mmHg 58%
    11:00 +12°C° 0 mm 2 mps 726 mmHg 55%
    12:00 +12°C° 0 mm 2 mps 726 mmHg 52%
    13:00 +12°C° 0 mm 3 mps 726 mmHg 50%
    14:00 +12°C° 0 mm 3 mps 725 mmHg 51%
    15:00 +12°C° 0 mm 3 mps 725 mmHg 52%
    16:00 +12°C° 0 mm 4 mps 725 mmHg 53%
    17:00 +10°C° 0 mm 3 mps 725 mmHg 61%
    18:00 +9°C° 0 mm 3 mps 725 mmHg 69%
    19:00 +7°C° 0 mm 3 mps 726 mmHg 77%
    20:00 +5°C° 0 mm 3 mps 726 mmHg 79%
    21:00 +4°C° 0 mm 3 mps 727 mmHg 81%
    22:00 +4°C° 0 mm 3 mps 727 mmHg 83%
    23:00 +3°C° 0 mm 3 mps 727 mmHg 83%

    5 April, Sunday

    Time Temperature Precipitation Wind Pressure Humidity
    00:00 +4°C° 0 mm 2 mps 727 mmHg 84%
    01:00 +3°C° 0 mm 2 mps 727 mmHg 85%
    02:00 +3°C° 0 mm 2 mps 727 mmHg 86%
    03:00 +3°C° 0 mm 2 mps 727 mmHg 86%
    04:00 +2°C° 0 mm 2 mps 727 mmHg 87%
    05:00 +3°C° 0 mm 2 mps 727 mmHg 84%
    06:00 +3°C° 0 mm 2 mps 727 mmHg 82%
    07:00 +4°C° 0 mm 2 mps 727 mmHg 79%
    08:00 +6°C° 0 mm 2 mps 727 mmHg 72%
    09:00 +9°C° 0 mm 3 mps 727 mmHg 64%
    10:00 +11°C° 0 mm 3 mps 727 mmHg 56%
    11:00 +13°C° 0 mm 3 mps 726 mmHg 52%
    12:00 +14°C° 0 mm 4 mps 726 mmHg 49%
    13:00 +17°C° 0 mm 4 mps 725 mmHg 45%
    14:00 +17°C° 0 mm 4 mps 725 mmHg 45%
    15:00 +17°C° 0 mm 4 mps 725 mmHg 44%
    16:00 +17°C° 0 mm 4 mps 724 mmHg 44%
    17:00 +14°C° 0 mm 4 mps 724 mmHg 51%
    18:00 +12°C° 0 mm 4 mps 724 mmHg 58%
    19:00 +8°C° 0 mm 4 mps 724 mmHg 64%
    20:00 +7°C° 0 mm 4 mps 724 mmHg 67%
    21:00 +7°C° 0 mm 3 mps 725 mmHg 70%
    22:00 +5°C° 0 mm 3 mps 725 mmHg 73%
    23:00 +5°C° 0 mm 3 mps 725 mmHg 75%
    Show more